Location: Червишево
(56.9461°N, 65.4282°E)
Time: 11:46:57
(UTC+05:00)

ISS - Visible Passes

Search period start: 13 May 2021 00:00
Search period end: 23 May 2021 00:00
Orbit: 417 x 422 km, 51.6° (Epoch: 12 May)

Date Brightness Start Highest point End Pass type
(mag) Time Alt. Az. Time Alt. Az. Time Alt. Az.
13 May -2.2 00:26:16 20° SE 00:26:16 20° SE 00:27:54 10° ESE visible
13 May -3.1 01:59:12 16° WSW 02:01:20 33° S 02:04:25 10° ESE visible
13 May -1.5 23:39:57 12° ESE 23:39:57 12° ESE 23:40:25 10° ESE visible
14 May -3.1 01:12:51 25° SW 01:14:01 33° S 01:17:06 10° ESE visible
14 May -2.6 02:47:31 10° WSW 02:50:19 24° SSW 02:53:07 10° SE visible
14 May -1.4 22:52:42 11° ESE 22:52:42 11° ESE 22:52:51 10° ESE visible
15 May -3.1 00:25:21 23° SW 00:26:42 32° S 00:29:45 10° ESE visible
15 May -2.9 02:00:05 10° WSW 02:03:01 28° SSW 02:05:58 10° SE visible
15 May -2.0 22:01:27 10° S 22:03:17 14° SSE 22:05:07 10° ESE visible
15 May -2.9 23:36:24 10° SW 23:39:22 29° SSE 23:42:21 10° ESE visible
16 May -3.0 01:12:41 10° WSW 01:15:43 31° S 01:18:45 10° SE visible
16 May -2.1 02:49:41 10° WSW 02:51:53 16° SSW 02:54:04 10° SSE visible
16 May -2.7 22:49:13 10° SW 22:52:05 26° SSE 22:54:56 10° ESE visible
17 May -3.1 00:25:19 10° WSW 00:28:24 33° S 00:31:28 10° ESE visible
17 May -2.4 02:02:04 10° WSW 02:04:38 20° SSW 02:07:12 10° SSE visible
17 May -2.5 22:02:08 10° SSW 22:04:48 22° SSE 22:07:27 10° ESE visible
17 May -3.1 23:37:59 10° WSW 23:41:03 33° S 23:44:09 10° ESE visible
18 May -2.6 01:14:34 10° WSW 01:17:11 24° SSW 01:17:11 24° SSW visible
18 May -3.0 22:50:42 10° WSW 22:53:44 32° S 22:56:47 10° ESE visible
19 May -2.8 00:27:07 10° WSW 00:30:04 28° SSW 00:30:42 26° S visible
19 May -2.8 22:03:26 10° SW 22:06:25 29° SSE 22:09:24 10° ESE visible
19 May -3.0 23:39:43 10° WSW 23:42:45 31° S 23:44:31 19° SE visible
20 May -1.6 01:16:43 10° WSW 01:17:26 13° WSW 01:17:26 13° WSW visible
20 May -3.0 22:52:21 10° WSW 22:55:25 33° S 22:58:26 10° ESE visible
21 May -2.3 00:29:06 10° WSW 00:31:22 20° SSW 00:31:22 20° SSW visible
21 May -3.0 22:05:01 10° WSW 22:08:05 33° S 22:11:10 10° ESE visible
21 May -2.5 23:41:36 10° WSW 23:44:23 24° SSW 23:45:19 21° S visible
22 May -2.7 22:54:08 10° WSW 22:57:05 28° SSW 22:59:20 14° SE visible
